This is the latest recevied weather packets stored in our database for station/object N8RJC-13. If no packets are shown the sender has not sent any weather packets the latest 10 day(s).
| Time | Temp. | Humidity | Pressure | Rain* | Wind** | Luminosity | Snow |
|---|---|---|---|---|---|---|---|
| 1777518801 | 11.11° C | 73% | 990.2 hPa | 0 mm | 1.34 m/s, 278° | - | - |
| 1777518741 | 11.11° C | 73% | 990.2 hPa | 0 mm | 1.34 m/s, 278° | - | - |
| 1777518681 | 11.11° C | 73% | 990.2 hPa | 0 mm | 1.34 m/s, 278° | - | - |
| 1777518621 | 11.11° C | 73% | 990.2 hPa | 0 mm | 1.34 m/s, 278° | - | - |
| 1777518561 | 11.11° C | 72% | 990.3 hPa | 0 mm | 1.79 m/s, 301° | - | - |
| 1777518501 | 11.11° C | 72% | 990.3 hPa | 0 mm | 1.79 m/s, 301° | - | - |
| 1777518441 | 11.11° C | 72% | 990.3 hPa | 0 mm | 1.79 m/s, 301° | - | - |
| 1777518381 | 11.11° C | 72% | 990.3 hPa | 0 mm | 1.79 m/s, 301° | - | - |
| 1777518321 | 11.11° C | 72% | 990.3 hPa | 0 mm | 1.79 m/s, 301° | - | - |
| 1777518261 | 11.11° C | 73% | 990.2 hPa | 0 mm | 0.89 m/s, 270° | - | - |
| 1777518201 | 11.11° C | 73% | 990.2 hPa | 0 mm | 0.89 m/s, 270° | - | - |
| 1777518141 | 11.11° C | 73% | 990.2 hPa | 0 mm | 0.89 m/s, 270° | - | - |
| 1777518081 | 11.11° C | 73% | 990.2 hPa | 0 mm | 0.89 m/s, 270° | - | - |
| 1777518021 | 11.11° C | 73% | 990.2 hPa | 0 mm | 0.89 m/s, 270° | - | - |
| 1777517961 | 11.11° C | 73% | 990.1 hPa | 0 mm | 1.34 m/s, 275° | - | - |
| 1777517901 | 11.11° C | 73% | 990.1 hPa | 0 mm | 1.34 m/s, 275° | - | - |
| 1777517841 | 11.11° C | 73% | 990.1 hPa | 0 mm | 1.34 m/s, 275° | - | - |
| 1777517781 | 11.11° C | 73% | 990.1 hPa | 0 mm | 1.34 m/s, 275° | - | - |
| 1777517721 | 11.11° C | 73% | 990.1 hPa | 0 mm | 1.34 m/s, 275° | - | - |
| 1777517661 | 11.11° C | 73% | 990.4 hPa | 0 mm | 0.89 m/s, 277° | - | - |
| 1777517601 | 11.11° C | 73% | 990.4 hPa | 0 mm | 0.89 m/s, 277° | - | - |
| 1777517541 | 11.11° C | 73% | 990.4 hPa | 0 mm | 0.89 m/s, 277° | - | - |
| 1777517481 | 11.11° C | 73% | 990.4 hPa | 0 mm | 0.89 m/s, 277° | - | - |
| 1777517421 | 11.11° C | 73% | 990.4 hPa | 0 mm | 0.89 m/s, 277° | - | - |
| 1777517361 | 11.67° C | 76% | 990.2 hPa | 0 mm | 0.89 m/s, 285° | - | - |
* Rain latest hour (hover to see other rain measurements)
** Current wind speed in m/s (hover to see current wind gust speed)